BAW777 MROC-MWCR

Flight info

Callsign BAW777
Flight time 1h 36m
Altitude 360
Route RADON UB767 PESTO B767 LEROL
Aircraft A320/M-V/N

Departure

Time 2026-04-22 01:51
Airport Juan Santamaría International Airport (MROC)

Arrival

Time 2026-04-22 03:28
Airport Owen Roberts International Airport (MWCR)
Time Latitude Longitude Altitude Speed Heading
2026-04-22 01:43 9.99816 -84.20233 3036 ft 0 kts 344°
2026-04-22 01:44 9.99811 -84.20232 3036 ft 2 kts 344°
2026-04-22 01:44 9.99803 -84.20230 3036 ft 1 kts 344°
2026-04-22 01:45 9.99790 -84.20226 3036 ft 3 kts 344°
2026-04-22 01:45 9.99772 -84.20221 3036 ft 3 kts 344°
2026-04-22 01:45 9.99752 -84.20215 3036 ft 3 kts 344°
2026-04-22 01:45 9.99733 -84.20209 3036 ft 3 kts 344°
2026-04-22 01:46 9.99713 -84.20204 3036 ft 3 kts 344°
2026-04-22 01:46 9.99693 -84.20198 3036 ft 3 kts 344°
2026-04-22 01:46 9.99674 -84.20192 3036 ft 3 kts 344°
2026-04-22 01:46 9.99665 -84.20190 3036 ft 1 kts 344°
2026-04-22 01:47 9.99695 -84.20202 3036 ft 10 kts 316°
2026-04-22 01:47 9.99683 -84.20295 3036 ft 20 kts 252°
2026-04-22 01:47 9.99631 -84.20449 3036 ft 24 kts 250°
2026-04-22 01:47 9.99572 -84.20606 3036 ft 24 kts 252°
2026-04-22 01:48 9.99514 -84.20769 3036 ft 26 kts 250°
2026-04-22 01:48 9.99450 -84.20938 3036 ft 26 kts 249°
2026-04-22 01:48 9.99382 -84.21123 3036 ft 32 kts 249°
2026-04-22 01:48 9.99301 -84.21343 3036 ft 34 kts 249°
2026-04-22 01:49 9.99209 -84.21595 3036 ft 41 kts 249°
2026-04-22 01:49 9.99120 -84.21835 3036 ft 31 kts 249°
2026-04-22 01:49 9.99032 -84.22078 3036 ft 40 kts 250°
2026-04-22 01:49 9.98966 -84.22230 3036 ft 3 kts 183°
2026-04-22 01:50 9.98920 -84.22209 3036 ft 12 kts 155°
2026-04-22 01:50 9.98898 -84.22138 3036 ft 14 kts 64°
2026-04-22 01:50 9.98960 -84.21987 3036 ft 42 kts 68°
2026-04-22 01:50 9.99165 -84.21459 3036 ft 117 kts 69°
2026-04-22 01:51 9.99539 -84.20472 3079 ft 177 kts 69°
2026-04-22 01:51 9.99991 -84.19234 3670 ft 199 kts 71°
2026-04-22 01:51 10.00510 -84.17826 4306 ft 232 kts 65°
2026-04-22 01:51 10.01369 -84.16207 4366 ft 290 kts 68°
2026-04-22 01:52 10.01737 -84.14040 4475 ft 335 kts 89°
2026-04-22 01:52 10.01538 -84.11718 5866 ft 327 kts 99°
2026-04-22 01:52 10.01175 -84.09451 7299 ft 322 kts 98°
2026-04-22 01:52 10.00893 -84.07220 8646 ft 315 kts 97°
2026-04-22 01:53 10.00685 -84.05022 9753 ft 312 kts 95°
2026-04-22 01:53 10.00529 -84.02811 10498 ft 323 kts 94°
2026-04-22 01:53 10.00520 -84.00445 10818 ft 346 kts 82°
2026-04-22 01:53 10.01330 -83.98150 11348 ft 357 kts 57°
2026-04-22 01:54 10.03020 -83.96308 11983 ft 362 kts 33°
2026-04-22 01:54 10.05207 -83.95018 12815 ft 364 kts 25°
2026-04-22 01:54 10.07456 -83.93823 13684 ft 367 kts 24°
2026-04-22 01:54 10.09742 -83.92623 14528 ft 371 kts 24°
2026-04-22 01:55 10.12054 -83.91408 15343 ft 375 kts 24°
2026-04-22 01:55 10.14383 -83.90179 16133 ft 379 kts 24°
2026-04-22 01:55 10.16710 -83.88946 16894 ft 383 kts 24°
2026-04-22 01:55 10.19098 -83.87702 17623 ft 387 kts 21°
2026-04-22 01:56 10.21686 -83.86942 18112 ft 392 kts
2026-04-22 01:56 10.24450 -83.87066 18067 ft 408 kts 343°
2026-04-22 01:56 10.27175 -83.88055 17997 ft 428 kts 334°
2026-04-22 01:56 10.29908 -83.89242 18788 ft 427 kts 334°
2026-04-22 01:57 10.31738 -83.90045 19025 ft 427 kts 334°
2026-04-22 01:57 10.34354 -83.91189 19488 ft 394 kts 333°
2026-04-22 01:57 10.36814 -83.92269 19764 ft 380 kts 333°
2026-04-22 01:57 10.39244 -83.93342 20040 ft 381 kts 333°
2026-04-22 01:58 10.41671 -83.94411 20314 ft 382 kts 333°
2026-04-22 01:58 10.44121 -83.95485 20622 ft 384 kts 333°
2026-04-22 01:58 10.46589 -83.96563 20949 ft 386 kts 333°
2026-04-22 01:58 10.49065 -83.97642 21275 ft 388 kts 333°
2026-04-22 01:59 10.51559 -83.98727 21601 ft 390 kts 333°
2026-04-22 01:59 10.54060 -83.99814 21928 ft 392 kts 333°
2026-04-22 01:59 10.56576 -84.00908 22253 ft 395 kts 333°
2026-04-22 01:59 10.59077 -84.01994 22575 ft 396 kts 334°
2026-04-22 02:00 10.61620 -84.03097 22901 ft 398 kts 334°
2026-04-22 02:00 10.64178 -84.04207 23228 ft 400 kts 334°
2026-04-22 02:00 10.66737 -84.05317 23553 ft 401 kts 334°
2026-04-22 02:00 10.69315 -84.06435 23879 ft 403 kts 334°
2026-04-22 02:01 10.71974 -84.07406 24203 ft 409 kts 342°
2026-04-22 02:01 10.74810 -84.07815 24528 ft 417 kts 355°
2026-04-22 02:01 10.77732 -84.07538 24855 ft 425 kts
2026-04-22 02:01 10.80543 -84.06550 25180 ft 433 kts 23°
2026-04-22 02:02 10.83113 -84.04906 25511 ft 439 kts 31°
2026-04-22 02:02 10.85799 -84.03450 25833 ft 435 kts 18°
2026-04-22 02:02 10.88708 -84.02622 26163 ft 434 kts 10°
2026-04-22 02:02 10.91617 -84.01947 26485 ft 436 kts
2026-04-22 02:03 10.94589 -84.01272 26811 ft 438 kts
2026-04-22 02:03 10.97561 -84.00600 27135 ft 440 kts
2026-04-22 02:03 11.00568 -83.99919 27462 ft 443 kts
2026-04-22 02:03 11.03584 -83.99235 27788 ft 445 kts
2026-04-22 02:04 11.09661 -83.97854 28440 ft 449 kts
2026-04-22 02:04 11.12726 -83.97156 28766 ft 452 kts
2026-04-22 02:04 11.15795 -83.96457 29091 ft 454 kts
2026-04-22 02:05 11.18891 -83.95752 29418 ft 456 kts
2026-04-22 02:05 11.21999 -83.95043 29744 ft 458 kts
2026-04-22 02:05 11.25121 -83.94330 30070 ft 461 kts
2026-04-22 02:05 11.28260 -83.93614 30396 ft 462 kts
2026-04-22 02:06 11.31409 -83.92895 30722 ft 463 kts
2026-04-22 02:06 11.34555 -83.92175 31047 ft 463 kts
2026-04-22 02:06 11.37692 -83.91457 31372 ft 462 kts
2026-04-22 02:06 11.40798 -83.90746 31694 ft 462 kts
2026-04-22 02:07 11.43937 -83.90028 32020 ft 461 kts
2026-04-22 02:07 11.47065 -83.89311 32345 ft 461 kts
2026-04-22 02:07 11.50187 -83.88596 32670 ft 460 kts
2026-04-22 02:07 11.53308 -83.87881 32995 ft 459 kts
2026-04-22 02:08 11.56424 -83.87167 33321 ft 459 kts
2026-04-22 02:08 11.59538 -83.86453 33646 ft 458 kts
2026-04-22 02:08 11.62647 -83.85740 33972 ft 457 kts
2026-04-22 02:08 11.65746 -83.85029 34297 ft 457 kts
2026-04-22 02:09 11.68844 -83.84319 34622 ft 456 kts
2026-04-22 02:09 11.71936 -83.83609 34947 ft 455 kts
2026-04-22 02:09 11.75030 -83.82899 35273 ft 454 kts
2026-04-22 02:09 11.78110 -83.82192 35598 ft 454 kts
2026-04-22 02:10 11.81198 -83.81483 35873 ft 453 kts
2026-04-22 02:10 11.87336 -83.80073 35988 ft 451 kts
2026-04-22 02:11 11.93475 -83.78662 35996 ft 452 kts
2026-04-22 02:11 11.96610 -83.77941 35996 ft 451 kts
2026-04-22 02:13 11.97838 -83.77659 35995 ft 451 kts
2026-04-22 02:14 12.04026 -83.76391 35995 ft 450 kts
2026-04-22 02:14 12.10152 -83.75260 35996 ft 450 kts
2026-04-22 02:15 12.16320 -83.74119 35996 ft 450 kts
2026-04-22 02:15 12.22494 -83.72974 35996 ft 450 kts
2026-04-22 02:16 12.28661 -83.71829 35995 ft 450 kts
2026-04-22 02:16 12.34827 -83.70683 35996 ft 450 kts
2026-04-22 02:17 12.40992 -83.69535 35996 ft 450 kts
2026-04-22 02:17 12.47112 -83.68395 35995 ft 450 kts
2026-04-22 02:18 12.53284 -83.67245 35995 ft 450 kts
2026-04-22 02:18 12.59450 -83.66094 35996 ft 450 kts
2026-04-22 02:19 12.65626 -83.64942 35996 ft 450 kts
2026-04-22 02:19 12.71759 -83.63796 35995 ft 450 kts
2026-04-22 02:20 12.77913 -83.62646 35996 ft 450 kts
2026-04-22 02:20 12.84090 -83.61491 35996 ft 450 kts
2026-04-22 02:21 12.90253 -83.60338 35995 ft 449 kts
2026-04-22 02:21 12.96414 -83.59185 35995 ft 450 kts
2026-04-22 02:22 13.02536 -83.58039 35996 ft 450 kts
2026-04-22 02:22 13.08688 -83.56886 35996 ft 449 kts
2026-04-22 02:23 13.14846 -83.55732 35995 ft 449 kts
2026-04-22 02:23 13.21001 -83.54577 35996 ft 450 kts
2026-04-22 02:24 13.27154 -83.53423 35996 ft 449 kts
2026-04-22 02:24 13.33308 -83.52267 35995 ft 449 kts
2026-04-22 02:25 13.39461 -83.51112 35995 ft 449 kts
2026-04-22 02:25 13.45604 -83.49957 35996 ft 449 kts
2026-04-22 02:26 13.51764 -83.48799 35995 ft 449 kts
2026-04-22 02:26 13.57909 -83.47643 35995 ft 449 kts
2026-04-22 02:27 13.64020 -83.46492 35996 ft 449 kts
2026-04-22 02:27 13.70173 -83.45333 35996 ft 449 kts
2026-04-22 02:28 13.76319 -83.44175 35995 ft 449 kts
2026-04-22 02:28 13.82462 -83.43017 35995 ft 449 kts
2026-04-22 02:29 13.88633 -83.41853 35996 ft 449 kts
2026-04-22 02:29 13.94733 -83.40701 35995 ft 449 kts
2026-04-22 02:30 14.00885 -83.39540 35996 ft 449 kts
2026-04-22 02:30 14.05817 -83.38489 35994 ft 452 kts 13°
2026-04-22 02:31 14.11764 -83.36327 35996 ft 453 kts 17°
2026-04-22 02:31 14.17683 -83.34070 35995 ft 453 kts 17°
2026-04-22 02:32 14.23614 -83.31817 35996 ft 453 kts 17°
2026-04-22 02:32 14.29505 -83.29586 35996 ft 453 kts 17°
2026-04-22 02:33 14.35425 -83.27350 35995 ft 453 kts 17°
2026-04-22 02:33 14.41347 -83.25117 35996 ft 453 kts 17°
2026-04-22 02:34 14.47264 -83.22889 35996 ft 453 kts 17°
2026-04-22 02:34 14.53198 -83.20656 35995 ft 453 kts 17°
2026-04-22 02:35 14.59122 -83.18427 35996 ft 453 kts 17°
2026-04-22 02:35 14.65046 -83.16199 35996 ft 453 kts 17°
2026-04-22 02:36 14.70942 -83.13982 35995 ft 453 kts 17°
2026-04-22 02:36 14.76882 -83.11747 35996 ft 453 kts 17°
2026-04-22 02:37 14.82806 -83.09518 35996 ft 453 kts 17°
2026-04-22 02:37 14.88696 -83.07301 35995 ft 453 kts 17°
2026-04-22 02:38 14.94621 -83.05071 35995 ft 453 kts 17°
2026-04-22 02:38 15.00549 -83.02837 35996 ft 453 kts 17°
2026-04-22 02:39 15.05467 -83.00984 35995 ft 452 kts 17°
2026-04-22 02:39 15.11395 -82.98749 35995 ft 453 kts 17°
2026-04-22 02:40 15.17318 -82.96515 35996 ft 453 kts 17°
2026-04-22 02:40 15.22435 -82.94583 35995 ft 452 kts 17°
2026-04-22 02:41 15.28344 -82.92340 35995 ft 453 kts 17°
2026-04-22 02:41 15.34265 -82.90084 35996 ft 453 kts 17°
2026-04-22 02:42 15.40183 -82.87839 35995 ft 452 kts 17°
2026-04-22 02:42 15.46102 -82.85597 35995 ft 453 kts 17°
2026-04-22 02:43 15.52025 -82.83354 35996 ft 453 kts 17°
2026-04-22 02:43 15.57919 -82.81122 35995 ft 452 kts 17°
2026-04-22 02:44 15.63836 -82.78879 35995 ft 453 kts 17°
2026-04-22 02:44 15.69767 -82.76631 35996 ft 453 kts 17°
2026-04-22 02:45 15.75680 -82.74388 35995 ft 452 kts 17°
2026-04-22 02:45 15.81603 -82.72140 35995 ft 453 kts 17°
2026-04-22 02:46 15.87490 -82.69904 35996 ft 453 kts 17°
2026-04-22 02:46 15.93410 -82.67655 35996 ft 452 kts 17°
2026-04-22 02:47 15.99378 -82.65385 35995 ft 453 kts 17°
2026-04-22 02:47 16.05290 -82.63135 35996 ft 453 kts 17°
2026-04-22 02:48 16.11217 -82.60879 35995 ft 452 kts 17°
2026-04-22 02:48 16.17095 -82.58639 35995 ft 452 kts 17°
2026-04-22 02:49 16.23008 -82.56385 35996 ft 453 kts 17°
2026-04-22 02:49 16.28921 -82.54129 35996 ft 452 kts 17°
2026-04-22 02:50 16.34838 -82.51870 35995 ft 452 kts 17°
2026-04-22 02:50 16.40757 -82.49609 35996 ft 453 kts 17°
2026-04-22 02:51 16.46675 -82.47347 35996 ft 452 kts 17°
2026-04-22 02:51 16.52559 -82.45096 35995 ft 452 kts 17°
2026-04-22 02:52 16.58473 -82.42833 35996 ft 453 kts 17°
2026-04-22 02:52 16.64390 -82.40566 35996 ft 452 kts 17°
2026-04-22 02:53 16.70304 -82.38300 35995 ft 452 kts 17°
2026-04-22 02:53 16.76221 -82.36030 35996 ft 453 kts 17°
2026-04-22 02:54 16.82124 -82.33765 35996 ft 452 kts 17°
2026-04-22 02:54 16.88037 -82.31494 35995 ft 452 kts 17°
2026-04-22 02:55 16.93947 -82.29223 35996 ft 452 kts 17°
2026-04-22 02:55 16.99825 -82.26963 35996 ft 453 kts 17°
2026-04-22 02:56 17.05743 -82.24685 35996 ft 452 kts 17°
2026-04-22 02:56 17.11657 -82.22408 35995 ft 452 kts 17°
2026-04-22 02:57 17.17565 -82.20131 35995 ft 452 kts 17°
2026-04-22 02:57 17.23479 -82.17851 35996 ft 453 kts 17°
2026-04-22 02:58 17.29384 -82.15572 35996 ft 453 kts 17°
2026-04-22 02:58 17.35312 -82.13284 35995 ft 452 kts 17°
2026-04-22 02:59 17.41212 -82.11004 35995 ft 452 kts 17°
2026-04-22 02:59 17.46777 -82.08852 35995 ft 452 kts 17°
2026-04-22 03:00 17.52677 -82.06569 35995 ft 452 kts 17°
2026-04-22 03:00 17.58185 -82.04431 35995 ft 452 kts 17°
2026-04-22 03:01 17.64090 -82.02121 35996 ft 453 kts 17°
2026-04-22 03:01 17.69998 -81.99809 35996 ft 453 kts 17°
2026-04-22 03:02 17.75859 -81.97516 35996 ft 452 kts 17°
2026-04-22 03:02 17.81790 -81.95196 35859 ft 452 kts 17°
2026-04-22 03:02 17.84708 -81.94054 35640 ft 453 kts 17°
2026-04-22 03:03 17.87658 -81.92900 35380 ft 452 kts 17°
2026-04-22 03:03 17.90617 -81.91742 35105 ft 454 kts 17°
2026-04-22 03:03 17.93576 -81.90584 34829 ft 455 kts 17°
2026-04-22 03:03 17.96545 -81.89422 34553 ft 454 kts 17°
2026-04-22 03:04 17.99507 -81.88262 34278 ft 455 kts 17°
2026-04-22 03:04 18.02483 -81.87097 34003 ft 456 kts 17°
2026-04-22 03:04 18.05455 -81.85932 33727 ft 456 kts 17°
2026-04-22 03:04 18.08440 -81.84763 33451 ft 456 kts 17°
2026-04-22 03:05 18.11414 -81.83597 33177 ft 457 kts 17°
2026-04-22 03:05 18.14368 -81.82439 32904 ft 458 kts 17°
2026-04-22 03:05 18.17367 -81.81262 32627 ft 459 kts 17°
2026-04-22 03:05 18.20361 -81.80088 32301 ft 458 kts 17°
2026-04-22 03:06 18.23352 -81.78914 31941 ft 460 kts 17°
2026-04-22 03:06 18.26357 -81.77734 31562 ft 461 kts 17°
2026-04-22 03:06 18.29340 -81.76561 31159 ft 451 kts 17°
2026-04-22 03:06 18.32251 -81.75415 30758 ft 442 kts 17°
2026-04-22 03:07 18.35073 -81.74303 30362 ft 434 kts 17°
2026-04-22 03:07 18.37871 -81.73199 29962 ft 426 kts 17°
2026-04-22 03:07 18.40663 -81.72097 29556 ft 419 kts 17°
2026-04-22 03:07 18.43344 -81.71038 29159 ft 413 kts 17°
2026-04-22 03:08 18.46005 -81.69987 28727 ft 407 kts 17°
2026-04-22 03:08 18.48659 -81.68939 28249 ft 404 kts 17°
2026-04-22 03:08 18.51280 -81.67904 27773 ft 400 kts 17°
2026-04-22 03:08 18.53881 -81.66877 27296 ft 397 kts 17°
2026-04-22 03:09 18.56457 -81.65860 26821 ft 394 kts 17°
2026-04-22 03:09 18.59029 -81.64845 26343 ft 392 kts 17°
2026-04-22 03:09 18.61541 -81.63852 25874 ft 389 kts 17°
2026-04-22 03:09 18.63842 -81.62943 25440 ft 387 kts 17°
2026-04-22 03:10 18.66360 -81.61942 24960 ft 385 kts 18°
2026-04-22 03:10 18.68699 -81.60520 24459 ft 390 kts 33°
2026-04-22 03:10 18.70822 -81.58735 23961 ft 390 kts 36°
2026-04-22 03:10 18.72904 -81.56911 23461 ft 389 kts 37°
2026-04-22 03:11 18.74966 -81.55116 22965 ft 388 kts 36°
2026-04-22 03:11 18.77054 -81.53324 22464 ft 386 kts 36°
2026-04-22 03:11 18.79147 -81.51548 21963 ft 385 kts 36°
2026-04-22 03:11 18.81243 -81.49789 21462 ft 384 kts 35°
2026-04-22 03:12 18.83343 -81.48041 20945 ft 383 kts 35°
2026-04-22 03:12 18.87534 -81.44572 19768 ft 378 kts 35°
2026-04-22 03:12 18.89597 -81.42894 19166 ft 370 kts 34°
2026-04-22 03:13 18.91626 -81.41317 18571 ft 362 kts 32°
2026-04-22 03:13 18.93690 -81.39776 17955 ft 356 kts 31°
2026-04-22 03:13 18.95702 -81.38317 17334 ft 351 kts 31°
2026-04-22 03:13 18.97717 -81.36873 16706 ft 347 kts 31°
2026-04-22 03:14 18.99706 -81.35458 16080 ft 343 kts 30°
2026-04-22 03:14 19.01678 -81.34057 15453 ft 339 kts 30°
2026-04-22 03:14 19.03606 -81.32691 14833 ft 335 kts 30°
2026-04-22 03:14 19.05536 -81.31326 14207 ft 332 kts 30°
2026-04-22 03:15 19.07444 -81.29977 13582 ft 329 kts 30°
2026-04-22 03:15 19.09347 -81.28635 12954 ft 326 kts 30°
2026-04-22 03:15 19.11227 -81.27311 12328 ft 323 kts 30°
2026-04-22 03:15 19.13089 -81.26000 11702 ft 321 kts 30°
2026-04-22 03:16 19.14939 -81.24697 11076 ft 318 kts 30°
2026-04-22 03:16 19.16779 -81.23402 10449 ft 316 kts 30°
2026-04-22 03:16 19.18601 -81.22121 9823 ft 313 kts 30°
2026-04-22 03:16 19.20395 -81.20863 9202 ft 311 kts 30°
2026-04-22 03:17 19.22208 -81.19594 8571 ft 308 kts 30°
2026-04-22 03:17 19.23998 -81.18353 7943 ft 306 kts 28°
2026-04-22 03:17 19.25921 -81.17470 7309 ft 297 kts 10°
2026-04-22 03:17 19.27939 -81.17313 6685 ft 288 kts 351°
2026-04-22 03:18 19.29808 -81.17854 6068 ft 279 kts 332°
2026-04-22 03:18 19.31203 -81.18902 5507 ft 274 kts 313°
2026-04-22 03:18 19.32167 -81.20609 4879 ft 272 kts 288°
2026-04-22 03:18 19.32372 -81.22630 3874 ft 286 kts 269°
2026-04-22 03:19 19.31990 -81.24511 3242 ft 284 kts 251°
2026-04-22 03:19 19.31243 -81.26404 2664 ft 272 kts 248°
2026-04-22 03:19 19.30730 -81.28278 2078 ft 260 kts 258°
2026-04-22 03:19 19.30479 -81.30110 1575 ft 242 kts 262°
2026-04-22 03:20 19.30238 -81.31593 1227 ft 220 kts 259°
2026-04-22 03:20 19.29904 -81.33103 832 ft 203 kts 254°
2026-04-22 03:20 19.29576 -81.34386 361 ft 200 kts 256°
2026-04-22 03:20 19.29369 -81.35341 315 ft 211 kts 257°
2026-04-22 03:21 19.29050 -81.37046 696 ft 258 kts 259°
2026-04-22 03:21 19.28779 -81.38711 1146 ft 284 kts 261°
2026-04-22 03:21 19.28488 -81.40696 1621 ft 257 kts 261°
2026-04-22 03:21 19.28217 -81.42472 1859 ft 233 kts 260°
2026-04-22 03:22 19.27900 -81.44121 2056 ft 231 kts 257°
2026-04-22 03:22 19.27502 -81.45787 2350 ft 234 kts 255°
2026-04-22 03:22 19.27036 -81.47436 2674 ft 236 kts 252°
2026-04-22 03:22 19.26500 -81.49072 2999 ft 230 kts 250°
2026-04-22 03:23 19.25909 -81.50641 3325 ft 229 kts 246°
2026-04-22 03:23 19.24889 -81.51899 3375 ft 225 kts 213°
2026-04-22 03:23 19.23372 -81.52333 2829 ft 235 kts 180°
2026-04-22 03:23 19.21815 -81.51780 2411 ft 235 kts 146°
2026-04-22 03:24 19.20993 -81.50478 2537 ft 207 kts 105°
2026-04-22 03:24 19.21229 -81.49008 2689 ft 207 kts 63°
2026-04-22 03:24 19.22250 -81.47995 2398 ft 202 kts 33°
2026-04-22 03:24 19.23472 -81.47270 1962 ft 201 kts 29°
2026-04-22 03:25 19.24633 -81.46500 1722 ft 191 kts 36°
2026-04-22 03:25 19.25630 -81.45652 1586 ft 177 kts 39°
2026-04-22 03:25 19.26519 -81.44794 1396 ft 169 kts 46°
2026-04-22 03:25 19.27268 -81.43878 1243 ft 161 kts 52°
2026-04-22 03:26 19.27747 -81.42839 1271 ft 160 kts 70°
2026-04-22 03:26 19.28021 -81.41678 1162 ft 164 kts 81°
2026-04-22 03:26 19.28196 -81.40503 904 ft 161 kts 79°
2026-04-22 03:26 19.28440 -81.39336 571 ft 161 kts 77°
2026-04-22 03:27 19.28707 -81.38200 334 ft 156 kts 76°
2026-04-22 03:27 19.28965 -81.37106 124 ft 149 kts 76°
2026-04-22 03:27 19.29204 -81.36080 23 ft 134 kts 75°
2026-04-22 03:27 19.29374 -81.35398 23 ft 64 kts 76°
2026-04-22 03:28 19.29441 -81.35100 23 ft 28 kts 77°
2026-04-22 03:28 19.29479 -81.34928 23 ft 24 kts 77°
2026-04-22 03:28 19.29528 -81.34760 23 ft 24 kts 53°
2026-04-22 03:28 19.29534 -81.34680 23 ft 22 kts 214°
2026-04-22 03:29 19.29491 -81.34868 23 ft 31 kts 259°
2026-04-22 03:29 19.29444 -81.35110 23 ft 36 kts 256°
2026-04-22 03:29 19.29370 -81.35384 23 ft 41 kts 256°
2026-04-22 03:29 19.29318 -81.35601 23 ft 22 kts 258°
2026-04-22 03:30 19.29431 -81.35676 23 ft 18 kts 307°
2026-04-22 03:30 19.29436 -81.35726 23 ft 3 kts 306°
2026-04-22 03:30 19.29464 -81.35733 23 ft 0 kts 351°